CW5834 Weather Reports


time (UTC)temp
C
wind
direction
speed
KPH
gust
KPH
rain 1hr
cm
rain 24hr
cm
rain mn
cm
humidity
%
barometer
mb
20260505221516 22 0.0 1.6 0.00 0.00 0.00 53 1011.6
20260505220516 22 0.0 3.2 0.00 0.00 0.00 50 1011.8
20260505215516 22 338 1.6 3.2 0.00 0.00 0.00 48 1011.9
20260505214516 22 203 1.6 6.4 0.00 0.00 0.00 48 1011.9
20260505213516 22 225 3.2 8.0 0.00 0.00 0.00 46 1012.0
20260505212516 22 270 3.2 14.5 0.00 0.00 0.00 46 1012.2
20260505211516 22 270 3.2 6.4 0.00 0.00 0.00 46 1012.1
20260505210516 23 203 3.2 9.7 0.00 0.00 0.00 45 1012.2
20260505205516 23 293 3.2 9.7 0.00 0.00 0.00 46 1012.7
20260505204516 23 203 6.4 14.5 0.00 0.00 0.00 47 1012.6
20260505203516 22 225 4.8 11.3 0.00 0.00 0.00 48 1012.8
20260505202536 22 225 3.2 12.9 0.00 0.00 0.00 48 1013.0
20260505201516 22 225 3.2 9.7 0.00 0.00 0.00 48 1012.9
20260505200536 22 180 4.8 11.3 0.00 0.00 0.00 48 1013.1
20260505195536 23 225 4.8 11.3 0.00 0.00 0.00 48 1013.2
20260505194536 22 225 4.8 14.5 0.00 0.00 0.00 48 1013.3
20260505193517 23 225 4.8 11.3 0.00 0.00 0.00 46 1013.7
20260505192516 23 203 6.4 17.7 0.00 0.00 0.00 45 1013.7
20260505191515 23 248 4.8 11.3 0.00 0.00 0.00 44 1014.0
20260505190516 23 225 4.8 11.3 0.00 0.00 0.00 48 1014.2
20260505185516 22 225 6.4 14.5 0.00 0.00 0.00 48 1014.5
20260505184516 22 248 6.4 17.7 0.00 0.00 0.00 47 1014.4
20260505183516 22 225 4.8 14.5 0.00 0.00 0.00 48 1014.5
20260505182520 22 225 4.8 16.1 0.00 0.00 0.00 49 1014.8
20260505181516 22 203 4.8 16.1 0.00 0.00 0.00 47 1015.1
20260505180515 22 270 4.8 14.5 0.00 0.00 0.00 48 1015.1
20260505175516 22 203 9.7 17.7 0.00 0.00 0.00 45 1015.0
20260505174515 22 225 3.2 11.3 0.00 0.00 0.00 49 1015.4
20260505173516 22 225 6.4 11.3 0.00 0.00 0.00 47 1015.4
20260505172515 22 225 6.4 14.5 0.00 0.00 0.00 46 1015.4
20260505171516 22 203 6.4 16.1 0.00 0.00 0.00 49 1015.7
20260505170536 21 203 6.4 20.9 0.00 0.00 0.00 46 1016.0
20260505165515 21 203 6.4 17.7 0.00 0.00 0.00 50 1016.2
20260505164515 21 203 8.0 17.7 0.00 0.00 0.00 48 1016.1
20260505163516 21 180 8.0 19.3 0.00 0.00 0.00 50 1016.2
20260505162556 21 225 4.8 12.9 0.00 0.00 0.00 53 1016.4
20260505161515 21 203 6.4 17.7 0.00 0.00 0.00 52 1016.3
20260505160517 21 203 6.4 19.3 0.00 0.00 0.00 53 1016.3
20260505152557 21 203 3.2 8.0 0.00 0.00 0.00 52 1016.3
20260505151517 20 203 4.8 11.3 0.00 0.00 0.00 53 1016.2
20260505150517 20 203 1.6 8.0 0.00 0.00 0.00 54 1016.1
20260505140518 20 225 4.8 12.9 0.00 0.00 0.00 55 1016.0
20260505124517 16 180 1.6 3.2 0.00 0.00 0.00 67 1015.8
20260505123517 15 0.0 3.2 0.00 0.00 0.00 73 1015.9
20260505122518 14 0.0 3.2 0.00 0.00 0.00 75 1015.7
20260505121517 13 0.0 3.2 0.00 0.00 0.00 79 1015.4
20260505120517 12 0.0 3.2 0.00 0.00 0.00 82 1015.4
20260505115537 11 0.0 3.2 0.00 0.00 0.00 82 1015.3
20260505114517 10 0.0 1.6 0.00 0.00 0.00 84 1015.2
20260505113537 10 0.0 3.2 0.00 0.00 0.00 83 1015.3
20260505112517 10 0.0 1.6 0.00 0.00 0.00 84 1015.1
20260505111517 10 0.0 1.6 0.00 0.00 0.00 84 1014.8
20260505110517 9 0.0 0.0 0.00 0.00 0.00 84 1014.6
20260505101517 10 0.0 1.6 0.00 0.00 0.00 80 1014.7
20260505100517 11 0.0 0.0 0.00 0.00 0.00 79 1014.9
20260505095517 11 0.0 3.2 0.00 0.00 0.00 78 1015.1
20260505094516 11 0.0 3.2 0.00 0.00 0.00 78 1015.1
20260505093517 11 0 1.6 1.6 0.00 0.00 0.00 77 1015.2
20260505092516 11 0.0 1.6 0.00 0.00 0.00 74 1015.2
20260505091556 12 0.0 3.2 0.00 0.00 0.00 73 1015.4
20260505090519 12 0.0 1.6 0.00 0.00 0.00 72 1015.4
20260505085521 12 0.0 1.6 0.00 0.00 0.00 71 1015.1
20260505084616 13 0.0 3.2 0.00 0.00 0.00 70 1015.3
20260505083537 13 0.0 0.0 0.00 0.00 0.00 68 1015.2
20260505082516 13 0.0 3.2 0.00 0.00 0.00 67 1015.1
20260505081516 13 0.0 3.2 0.00 0.00 0.00 67 1015.0
20260505080516 14 0.0 4.8 0.00 0.00 0.00 66 1014.8
20260505075536 14 270 1.6 4.8 0.00 0.00 0.00 66 1014.6
20260505074516 14 293 1.6 3.2 0.00 0.00 0.00 66 1014.6
20260505073536 14 293 1.6 6.4 0.00 0.00 0.00 66 1014.7
20260505072516 15 0.0 4.8 0.00 0.00 0.00 65 1014.5
20260505071516 15 203 1.6 4.8 0.00 0.00 0.00 64 1014.5
20260505070517 15 0.0 3.2 0.00 0.00 0.00 64 1014.7
20260505065516 16 180 1.6 3.2 0.00 0.00 0.00 63 1014.6
20260505064556 16 180 1.6 6.4 0.00 0.00 0.00 62 1014.8
20260505063516 16 203 1.6 8.0 0.00 0.00 0.00 61 1014.8
20260505062516 16 180 1.6 4.8 0.00 0.00 0.00 60 1014.8
20260505061536 16 248 3.2 9.7 0.00 0.00 0.00 60 1014.7
20260505060516 16 270 3.2 11.3 0.00 0.00 0.00 59 1014.7
20260505055516 16 315 1.6 6.4 0.00 0.00 0.00 60 1014.6
20260505054516 16 180 1.6 6.4 0.00 0.00 0.00 60 1014.4
20260505053516 16 23 1.6 8.0 0.00 0.00 0.00 60 1014.4
20260505052516 16 338 1.6 8.0 0.00 0.00 0.00 63 1014.2
20260505051556 16 0.0 3.2 0.00 0.00 0.00 63 1014.1
20260505050536 16 203 3.2 8.0 0.00 0.00 0.00 62 1014.1
20260505041536 16 315 1.6 3.2 0.00 0.00 0.00 60 1014.0
20260505040516 16 0.0 4.8 0.00 0.00 0.00 61 1014.1
20260505035537 16 248 1.6 6.4 0.00 0.00 0.00 61 1013.9
20260505034537 16 0.0 4.8 0.00 0.00 0.00 61 1014.1
20260505033517 16 180 3.2 9.7 0.00 0.00 0.00 61 1014.2
20260505032537 16 225 1.6 6.4 0.00 0.00 0.00 62 1014.3
20260505031557 16 0.0 3.2 0.00 0.00 0.00 63 1014.3
20260505030517 16 203 1.6 6.4 0.00 0.00 0.00 63 1014.1
20260505025517 16 180 1.6 4.8 0.00 0.00 0.00 64 1014.2
20260505024516 16 203 1.6 6.4 0.00 0.00 0.00 64 1014.0
20260505023517 16 225 1.6 8.0 0.00 0.00 0.00 64 1014.0
20260505022517 16 180 1.6 4.8 0.00 0.00 0.00 65 1014.0
20260505021517 15 225 1.6 4.8 0.00 0.00 0.00 66 1013.7
20260505020516 15 315 1.6 3.2 0.00 0.00 0.00 67 1013.7
20260505015516 15 0.0 1.6 0.00 0.00 0.00 68 1013.5
20260505014537 15 0.0 0.0 0.00 0.00 0.00 66 1013.6
20260505013516 16 0.0 3.2 0.00 0.00 0.00 64 1013.6
20260505012516 16 315 1.6 1.6 0.00 0.00 0.00 63 1013.5
20260505011537 16 315 1.6 1.6 0.00 0.00 0.00 64 1013.6
20260505010516 17 315 1.6 3.2 0.00 0.00 0.00 61 1013.0
20260505005536 17 338 1.6 1.6 0.00 0.00 0.00 61 1013.2
20260505004516 17 338 1.6 1.6 0.00 0.00 0.00 60 1013.0
20260505003516 18 23 1.6 1.6 0.00 0.00 0.00 59 1012.8
20260505002636 18 293 1.6 1.6 0.00 0.00 0.00 58 1012.8
20260505001516 19 0.0 1.6 0.00 0.00 0.00 56 1012.8
20260505000537 20 0.0 3.2 0.00 0.00 0.00 51 1012.6
20260504235536 21 0.0 3.2 0.00 0.00 0.00 50 1012.8
20260504234516 21 0.0 3.2 0.00 0.00 0.00 48 1012.7
20260504233536 21 248 1.6 4.8 0.00 0.00 0.00 47 1012.6
20260504232516 22 225 3.2 12.9 0.00 0.00 0.00 46 1012.9
20260504231516 22 225 3.2 6.4 0.00 0.00 0.00 44 1012.8
20260504230516 23 225 3.2 9.7 0.00 0.00 0.00 44 1012.8
20260504225536 23 225 3.2 6.4 0.00 0.00 0.00 44 1013.2
20260504224516 23 203 3.2 9.7 0.00 0.00 0.00 45 1013.1
20260504223556 23 203 4.8 11.3 0.00 0.00 0.00 44 1013.3
20260504222523 24 225 6.4 11.3 0.00 0.00 0.00 42 1013.3